Osceola Municipal, IA

6:12 AM CDT on October 22, 2017 (GMT -0500)
Osceola Municipal

Weather History for KI75 - May, 2013

Change the Weather History Date:

Friday, May 3, 2013

  Actual Average (KCNC) Record (KCNC)
Temperature  
Mean Temperature 32 °F -  
Max Temperature 32 °F 68 °F 89 °F (1952)
Min Temperature 32 °F 43 °F 26 °F (1971)
Degree Days  
Heating Degree Days 33    
Moisture  
Dew Point 31 °F    
Average Humidity 95    
Maximum Humidity 100    
Minimum Humidity 92    
Precipitation  
Precipitation 0.05 in - - ()
Sea Level Pressure  
Sea Level Pressure 30.09 in    
Wind  
Wind Speed 14 mph (NNW)    
Max Wind Speed 20 mph    
Max Gust Speed 25 mph    
Visibility 5 miles    
Events Rain , Snow    
Averages and records for this station are not official NWS values.
T = Trace of Precipitation, MM = Missing Value Source: NWS Daily Summary

Daily Weather History Graph

Daily Weather History Graph

Search for Another Location

Airport or City:

Trip Planner

Search our weather history database for the weather conditions in past years. The results will help you decide how hot, cold, wet, or windy it might be!

Date:

Astronomy

May. 03, 2013 Rise Set
Actual Time 6:09 AM CDT 8:14 PM CDT
Civil Twilight 5:39 AM CDT 8:44 PM CDT
Nautical Twilight 5:02 AM CDT 9:21 PM CDT
Astronomical Twilight 4:22 AM CDT 10:01 PM CDT
Moon 2:37 AM CDT (5/3) 2:06 PM CDT (5/3)
Length of Visible Light 15h 04m
Length of Day
14h 04m
Last Quarter, 37% of the Moon is Illuminated
May 3
Last Quarter
May 9
New
May 17
First Quarter
May 24
Full
May 31
Last Quarter

Hourly Weather History & Observations

Time (CDT) Temp. Windchill Dew Point Humidity Pressure Visibility Wind Dir Wind Speed Gust Speed Precip Events Conditions
12:15 AM 32.0 °F 22.5 °F 31.8 °F 99% 30.29 in 1.5 mi NNW 12.7 mph - N/A Snow Light Snow
12:35 AM 32.0 °F 22.1 °F 31.8 °F 99% 30.28 in 1.2 mi North 13.8 mph - N/A Snow Light Snow
12:55 AM 32.0 °F 22.1 °F 31.6 °F 99% 30.28 in 1.0 mi NNW 13.8 mph - 0.01 in Snow Light Snow
1:15 AM 32.0 °F 22.5 °F 31.8 °F 99% 30.28 in 1.5 mi North 12.7 mph - 0.01 in Snow Light Snow
1:35 AM 32.0 °F 21.6 °F 32.0 °F 100% 30.26 in 3.0 mi North 15.0 mph - 0.01 in Snow Light Snow
1:55 AM 32.2 °F 21.8 °F 32.0 °F 99% 30.26 in 5.0 mi North 15.0 mph - 0.01 in Snow Light Snow
2:15 AM 32.2 °F 22.3 °F 31.8 °F 99% 30.23 in 2.5 mi NNW 13.8 mph 18.4 mph N/A Snow Light Snow
2:35 AM 32.0 °F 22.1 °F 31.8 °F 99% 30.24 in 1.2 mi NNW 13.8 mph - N/A Snow Light Snow
2:55 AM 32.0 °F 21.6 °F 31.6 °F 99% 30.22 in 1.0 mi NNW 15.0 mph - 0.01 in Snow Snow
3:15 AM 32.0 °F 22.5 °F 31.6 °F 99% 30.21 in 1.0 mi North 12.7 mph 21.9 mph N/A Snow Snow
3:35 AM 32.0 °F 20.8 °F 31.6 °F 99% 30.19 in 0.8 mi NNW 17.3 mph 21.9 mph 0.01 in Snow Snow
3:55 AM 32.0 °F 21.6 °F 31.6 °F 99% 30.20 in 1.0 mi NNW 15.0 mph - 0.01 in Snow Light Snow
4:15 AM 32.0 °F 22.5 °F 31.6 °F 99% 30.20 in 2.0 mi NNW 12.7 mph - N/A Snow Light Snow
4:35 AM 32.0 °F 21.6 °F 31.5 °F 98% 30.18 in 1.8 mi NNW 15.0 mph - N/A Snow Light Snow
4:55 AM 32.0 °F 23.6 °F 31.5 °F 98% 30.20 in 1.8 mi NNW 10.4 mph - N/A Snow Light Snow
5:15 AM 32.0 °F 23.0 °F 31.3 °F 97% 30.19 in 1.8 mi North 11.5 mph - N/A Snow Light Snow
5:35 AM 32.0 °F 21.6 °F 31.1 °F 96% 30.16 in 1.5 mi North 15.0 mph - N/A Snow Light Snow
5:55 AM 32.0 °F 22.5 °F 31.1 °F 96% 30.16 in 1.5 mi North 12.7 mph - N/A Snow Light Snow
6:15 AM 32.0 °F 23.0 °F 31.1 °F 96% 30.17 in 1.8 mi North 11.5 mph 18.4 mph N/A Snow Light Snow
6:35 AM 32.0 °F 22.1 °F 31.1 °F 96% 30.15 in 1.5 mi North 13.8 mph 17.3 mph N/A Snow Light Snow
6:55 AM 32.0 °F 23.0 °F 31.1 °F 96% 30.17 in - NNW 11.5 mph - N/A   Unknown
7:15 AM 32.0 °F 23.6 °F 31.1 °F 96% 30.17 in 4.0 mi NNW 10.4 mph - N/A Snow Light Snow
7:35 AM 32.0 °F 23.0 °F 30.9 °F 96% 30.16 in 3.0 mi NNW 11.5 mph 17.3 mph N/A Snow Light Snow
7:55 AM 32.0 °F 23.0 °F 30.9 °F 96% 30.15 in 1.5 mi NNW 11.5 mph - N/A Snow Light Snow
8:15 AM 32.0 °F 23.0 °F 31.1 °F 96% 30.16 in 1.8 mi NNW 11.5 mph - N/A Snow Light Snow
8:35 AM 32.0 °F 23.0 °F 30.9 °F 96% 30.15 in 1.0 mi NNW 11.5 mph - N/A Snow Light Snow
8:55 AM 32.0 °F 23.0 °F 30.7 °F 95% 30.15 in 1.5 mi NNW 11.5 mph - N/A Snow Light Snow
9:15 AM 32.0 °F 24.2 °F 30.7 °F 95% 30.15 in - NNW 9.2 mph - N/A   Unknown
9:35 AM 32.0 °F 24.8 °F 30.7 °F 95% 30.14 in 1.0 mi NNW 8.1 mph - N/A Snow Light Snow
9:55 AM - - - N/A% 30.12 in - NNW 5.8 mph - N/A   Unknown
10:55 AM 32.9 °F 21.6 °F 30.9 °F 92% 30.11 in 2.0 mi NNW 18.4 mph 23.0 mph N/A Snow Light Snow
11:15 AM 32.9 °F 21.6 °F 30.7 °F 92% 30.11 in 2.0 mi NNW 18.4 mph 23.0 mph N/A Snow Light Snow
11:35 AM 32.7 °F 21.8 °F 31.1 °F 94% 30.10 in 1.5 mi NNW 17.3 mph - N/A Snow Light Snow
11:55 AM 32.5 °F 22.7 °F 30.9 °F 94% 30.10 in 1.8 mi North 13.8 mph - N/A Snow Light Snow
12:15 PM 32.9 °F 22.4 °F 30.9 °F 92% 30.09 in 5.0 mi North 16.1 mph - N/A   Overcast
12:35 PM 32.4 °F 23.0 °F 30.7 °F 94% 30.09 in 7.0 mi NNW 12.7 mph - N/A   Overcast
12:55 PM 32.4 °F 20.6 °F 30.6 °F 93% 30.08 in 2.5 mi NNW 19.6 mph 24.2 mph N/A Snow Light Snow
1:15 PM 32.4 °F 22.1 °F 30.6 °F 93% 30.07 in 2.5 mi NNW 15.0 mph - N/A Snow Light Snow
1:35 PM 32.4 °F 20.9 °F 30.6 °F 93% 30.06 in 4.0 mi NNW 18.4 mph 24.2 mph N/A   Overcast
1:55 PM 32.4 °F 21.7 °F 30.6 °F 93% 30.06 in 2.5 mi NNW 16.1 mph - N/A   Overcast
2:15 PM 32.2 °F 21.4 °F 30.7 °F 94% 30.06 in 2.5 mi North 16.1 mph 23.0 mph N/A   Overcast
2:35 PM 32.4 °F 20.6 °F 30.7 °F 94% 30.04 in 2.5 mi NNW 19.6 mph - N/A Rain Light Rain
2:55 PM 32.4 °F 21.7 °F 30.7 °F 94% 30.05 in 3.0 mi North 16.1 mph - N/A   Overcast
3:15 PM 32.0 °F 20.8 °F 30.7 °F 95% 30.05 in 4.0 mi North 17.3 mph 21.9 mph N/A   Overcast
3:35 PM 32.2 °F 21.1 °F 30.6 °F 94% 30.03 in 4.0 mi North 17.3 mph 23.0 mph N/A   Overcast
3:55 PM 32.0 °F 20.8 °F 30.7 °F 95% 30.03 in 3.0 mi North 17.3 mph 23.0 mph N/A   Overcast
4:15 PM 32.0 °F 21.6 °F 30.6 °F 94% 30.02 in 4.0 mi NNW 15.0 mph 25.3 mph N/A Rain Light Rain
4:35 PM 32.0 °F 20.5 °F 30.7 °F 95% 30.01 in 5.0 mi NNW 18.4 mph 23.0 mph N/A   Overcast
4:55 PM 32.2 °F 21.8 °F 30.7 °F 94% 30.01 in 7.0 mi NNW 15.0 mph 24.2 mph N/A   Overcast
5:15 PM 32.0 °F 20.5 °F 30.4 °F 94% 30.01 in 5.0 mi NNW 18.4 mph 23.0 mph N/A   Overcast
5:35 PM 32.0 °F 20.5 °F 30.6 °F 94% 30.01 in 10.0 mi North 18.4 mph 24.2 mph N/A   Overcast
5:55 PM 32.0 °F 20.8 °F 30.2 °F 93% 30.03 in 10.0 mi North 17.3 mph 23.0 mph N/A   Overcast
6:15 PM 32.0 °F 21.2 °F 30.6 °F 94% 30.01 in 10.0 mi North 16.1 mph 20.7 mph N/A   Overcast
6:35 PM 32.2 °F 21.4 °F 30.2 °F 92% 30.01 in 10.0 mi North 16.1 mph 23.0 mph N/A   Overcast
6:55 PM 32.4 °F 21.7 °F 30.2 °F 92% 30.00 in 10.0 mi North 16.1 mph - N/A   Overcast
7:15 PM 32.4 °F 21.3 °F 30.2 °F 92% 30.00 in 10.0 mi North 17.3 mph 20.7 mph N/A   Overcast
7:35 PM 32.4 °F 22.1 °F 30.2 °F 92% 29.99 in 10.0 mi North 15.0 mph 23.0 mph N/A   Overcast
7:55 PM 32.4 °F 22.5 °F 30.2 °F 92% 29.99 in 10.0 mi NNW 13.8 mph 23.0 mph N/A   Overcast
8:15 PM 32.4 °F 21.7 °F 30.2 °F 92% 30.00 in 10.0 mi North 16.1 mph - N/A   Overcast
8:35 PM 32.4 °F 22.5 °F 30.2 °F 92% 29.99 in 10.0 mi North 13.8 mph - N/A   Overcast
8:55 PM 32.2 °F 21.4 °F 30.6 °F 94% 29.98 in 10.0 mi NNW 16.1 mph - N/A   Light Drizzle
9:15 PM 32.0 °F 21.2 °F 30.7 °F 95% 29.97 in 10.0 mi North 16.1 mph 23.0 mph N/A Rain Light Rain
9:35 PM 32.0 °F 20.1 °F 30.7 °F 95% 29.94 in 10.0 mi North 19.6 mph 25.3 mph N/A   Light Drizzle
9:55 PM 32.0 °F 20.5 °F 31.1 °F 96% 29.95 in 10.0 mi North 18.4 mph 24.2 mph N/A Rain Light Rain
10:15 PM 32.2 °F 20.7 °F 31.1 °F 96% 29.95 in 10.0 mi North 18.4 mph 23.0 mph N/A   Light Drizzle
10:35 PM 32.4 °F 20.9 °F 31.1 °F 95% 29.96 in 10.0 mi North 18.4 mph 21.9 mph N/A Rain Light Rain
10:55 PM 32.4 °F 21.7 °F 31.1 °F 95% 29.95 in 10.0 mi North 16.1 mph 19.6 mph N/A   Light Drizzle
11:15 PM 32.4 °F 22.1 °F 31.1 °F 95% 29.94 in 10.0 mi North 15.0 mph 21.9 mph N/A Rain Light Rain
11:35 PM 32.4 °F 20.9 °F 31.3 °F 96% 29.92 in 5.0 mi NNW 18.4 mph - N/A Rain Light Rain
11:55 PM 32.4 °F 20.9 °F 31.6 °F 97% 29.91 in 7.0 mi North 18.4 mph 23.0 mph 0.01 in Rain Light Rain